[[{"header":{"parameterUnit":"m.s-1","parameterCategory":1,"la1":30.2991,"la2":30.254,"lo1":-89.0895,"lo2":-89.0444,"dy":0.0017,"dx":0.0017,"nx":28,"ny":28,"refTime":"2025-07-23T09:00:00:Z","depth":0,"parameterNumber":2,"parameterNumberName":"U-component_of_WINDS"},"data":[0,0,0,0,0,0,0,0,0,0,0,0,0,0,0,0,0,0,0,0,0,0,0,0,0,0,0,0,0,0,0,0,0,0,0,0,0,0,0,0,0,0,0,0,0,0,0,0,0,0,0,0,0,0,0,0,0,0,1.2349,1.2348,0,1.2263,1.2262,1.2261,1.2184,1.2184,1.2183,1.2182,1.2088,1.2086,1.2084,0,0,0,0,0,0,0,0,0,0,0,0,0,1.2443,1.2442,1.2349,1.2348,1.2347,1.2263,1.2262,1.2261,1.2185,1.2184,1.2182,1.2181,1.2088,1.2086,1.2084,0,0,0,0,0,0,0,0,0,0,0,0,0,1.2384,1.2441,1.2349,1.2299,1.2293,1.2264,1.2262,1.2261,1.2185,1.2184,1.2182,1.2181,1.2089,1.2086,1.2084,1.2095,0,0,1.2076,1.2075,0,0,0,0,0,0,0,0,1.2388,1.2381,1.2307,1.2302,1.2296,1.2233,1.2261,1.2205,1.2185,1.2226,1.2182,1.218,1.2137,1.213,1.2117,1.2091,1.2087,1.2076,1.2075,1.2073,1.2073,0,0,0,0,0,0,0,1.2392,1.2384,1.2315,1.2306,1.2299,1.2279,1.227,1.225,1.219,1.2222,1.2216,1.2208,1.2133,1.212,1.2114,1.2085,1.2076,1.2074,1.2072,1.2071,1.2069,1.207,0,0,0,0,0,0,1.2404,1.2388,1.2317,1.2312,1.234,1.2279,1.2268,1.2255,1.219,1.2179,1.2209,1.2204,1.2125,1.2117,1.2111,1.2123,1.2074,1.2071,1.207,1.2068,1.2069,1.2071,0,0,0,0,0,0,1.2407,1.2399,1.2321,1.2349,1.2337,1.2279,1.2265,1.2254,1.224,1.218,1.2168,1.2206,1.2123,1.2114,1.2101,1.2118,1.207,1.2068,1.2066,1.2068,1.207,1.2145,0,0,0,0,0,0,1.241,1.24,1.2404,1.2349,1.2336,1.2314,1.2265,1.2253,1.2236,1.223,1.2174,1.2163,1.2121,1.2105,1.2099,1.2114,1.2066,1.2064,1.2067,1.2069,1.2141,1.215,1.2157,0,0,0,0,0,1.2413,1.2426,1.2405,1.2397,1.234,1.2315,1.2307,1.2261,1.2238,1.2242,1.2204,1.2165,1.2118,1.2105,1.2096,1.2111,1.2063,1.2066,1.2069,1.2137,1.2148,1.2157,0,0,0,0,0,0,1.2481,1.2418,1.2393,1.2389,1.2359,1.2302,1.2305,1.2273,1.2246,1.2241,1.2182,1.217,1.2164,1.2136,1.2123,1.2121,1.2085,1.2087,1.214,1.2149,1.2157,1.2165,1.2064,0,0,0,0,0,1.2496,1.2483,1.2427,1.2429,1.2415,1.2364,1.235,1.2318,1.2283,1.2269,1.2229,1.2196,1.2174,1.216,1.2135,1.2137,1.2125,1.2143,1.2151,1.2158,1.2161,1.2163,1.2171,1.2082,1.2081,1.2081,0,0,1.2526,1.249,1.2484,1.2442,1.2414,1.2402,1.2353,1.2339,1.233,1.2266,1.2253,1.2224,1.2182,1.2178,1.2173,1.2154,1.2183,1.2162,1.2169,1.2167,1.2167,1.2176,1.2184,1.2084,1.2083,1.2083,0,0,1.2574,1.2545,1.2545,1.252,1.248,1.2446,1.2447,1.2396,1.2375,1.2362,1.2315,1.2302,1.2264,1.2237,1.2219,1.2263,1.2227,1.2257,1.2299,1.2302,1.2309,1.2315,1.2334,1.2341,1.2259,1.2259,1.2259,0,1.2615,1.2595,1.2548,1.254,1.2524,1.247,1.247,1.2447,1.24,1.239,1.237,1.2325,1.2292,1.2283,1.2295,1.228,1.228,1.2262,1.2312,1.2318,1.2323,1.234,1.2346,1.2263,1.2263,1.2262,1.2262,0,1.265,1.2637,1.2642,1.2603,1.2587,1.2582,1.2535,1.2525,1.2495,1.2463,1.2452,1.2412,1.2382,1.2377,1.2345,1.2364,1.2354,1.2324,1.2286,1.2336,1.2351,1.2357,1.2269,1.2268,1.2266,1.2265,0,0,1.2736,1.2675,1.2677,1.2661,1.2615,1.2603,1.2598,1.2571,1.2564,1.2535,1.253,1.2502,1.2475,1.2455,1.242,1.2423,1.2465,1.2392,1.2391,1.2409,1.2487,1.2511,1.2519,1.2441,1.2442,1.2443,1.2491,0,1.2778,1.2767,1.2726,1.2727,1.2716,1.2667,1.2662,1.2634,1.2605,1.2591,1.2558,1.2541,1.2506,1.2494,1.2494,1.2459,1.2479,1.2455,1.2436,1.2436,1.2449,1.2526,1.255,1.2598,1.2496,1.2497,1.2498,0,1.2825,1.2803,1.2804,1.2763,1.2757,1.2754,1.2728,1.2715,1.2683,1.2662,1.2642,1.2605,1.2597,1.2564,1.2553,1.2538,1.2528,1.251,1.251,1.2507,1.247,1.2527,1.2611,1.2619,1.2506,1.2505,1.2505,0,1.2891,1.2861,1.2859,1.2846,1.2797,1.2797,1.2776,1.2743,1.2731,1.2708,1.27,1.2675,1.2662,1.2644,1.2602,1.258,1.2597,1.2559,1.258,1.2582,1.2586,1.2586,1.2672,1.2578,1.2577,1.2577,1.2577,0,1.2943,1.2946,1.2889,1.2888,1.2891,1.2845,1.2848,1.2823,1.2795,1.2788,1.2742,1.2736,1.2681,1.2669,1.2636,1.2634,1.2628,1.2611,1.2603,1.2616,1.2619,1.2609,1.2605,1.2579,1.2579,1.2578,1.2578,0,1.3017,1.2978,1.2973,1.293,1.2919,1.2923,1.2885,1.2883,1.2853,1.2845,1.2841,1.2794,1.2778,1.2735,1.2707,1.2685,1.2693,1.2676,1.2705,1.27,1.2725,1.2725,1.2808,1.2818,1.2717,1.2718,1.2719,0,1.3053,1.3055,1.3013,1.3006,1.2989,1.2978,1.2967,1.2922,1.2912,1.2879,1.2881,1.2862,1.2845,1.2823,1.2786,1.2765,1.2748,1.2779,1.2744,1.276,1.2751,1.2753,1.2754,1.2787,1.2788,1.2789,1.279,0,1.3122,1.3105,1.3091,1.3072,1.3061,1.3043,1.3022,1.3019,1.2969,1.2961,1.2946,1.2933,1.2908,1.2891,1.2866,1.2843,1.281,1.2802,1.2806,1.282,1.2839,1.2832,1.2728,1.28,1.2799,1.2798,1.2798,1.2797,1.3179,1.318,1.3153,1.314,1.3121,1.3104,1.3101,1.3073,1.306,1.3038,1.3012,1.3001,1.2972,1.2936,1.2917,1.2908,1.2889,1.2895,1.2896,1.2899,1.2907,1.284,1.2903,1.2902,1.2902,1.2902,1.2901,0,1.3248,1.3229,1.3218,1.3193,1.3184,1.3155,1.3132,1.3126,1.3118,1.3095,1.3081,1.3066,1.3051,1.3015,1.2996,1.2996,1.298,1.2993,1.2993,1.2989,1.2923,1.2922,1.3006,1.3006,1.3006,1.3006,1.3006,1.3006,1.3283,1.3285,1.3265,1.3257,1.3237,1.3228,1.3218,1.3203,1.3185,1.3172,1.316,1.3137,1.311,1.3089,1.3075,1.3064,1.306,1.3079,1.3064,1.3003,1.2993,1.2983,1.2983,1.3078,1.3078,1.3131,1.3131,1.3131]},{"header":{"parameterUnit":"m.s-1","parameterCategory":1,"la1":30.2991,"la2":30.254,"lo1":-89.0895,"lo2":-89.0444,"dy":0.0017,"dx":0.0017,"nx":28,"ny":28,"refTime":"2025-07-23T09:00:00:Z","depth":0,"parameterNumber":3,"parameterNumberName":"V-component_of_WINDS"},"data":[0,0,0,0,0,0,0,0,0,0,0,0,0,0,0,0,0,0,0,0,0,0,0,0,0,0,0,0,0,0,0,0,0,0,0,0,0,0,0,0,0,0,0,0,0,0,0,0,0,0,0,0,0,0,0,0,0,0,-1.8542,-1.8541,0,-1.8415,-1.8413,-1.8412,-1.8442,-1.8445,-1.8447,-1.8449,-1.8313,-1.8307,-1.8301,0,0,0,0,0,0,0,0,0,0,0,0,0,-1.8809,-1.8804,-1.8542,-1.8541,-1.8539,-1.8415,-1.8413,-1.8411,-1.8442,-1.8445,-1.8448,-1.8451,-1.8315,-1.8308,-1.8301,0,0,0,0,0,0,0,0,0,0,0,0,0,-1.8688,-1.8802,-1.8543,-1.8539,-1.8538,-1.8415,-1.8413,-1.8411,-1.8441,-1.8445,-1.8449,-1.8452,-1.8317,-1.8309,-1.83,-1.8171,0,0,-1.8273,-1.8269,0,0,0,0,0,0,0,0,-1.8695,-1.8678,-1.8541,-1.8539,-1.8537,-1.8448,-1.8457,-1.833,-1.844,-1.8478,-1.845,-1.8454,-1.8355,-1.8343,-1.8311,-1.8164,-1.8158,-1.8272,-1.8266,-1.8263,-1.826,0,0,0,0,0,0,0,-1.8703,-1.8684,-1.8492,-1.8539,-1.8537,-1.8543,-1.853,-1.8433,-1.8397,-1.8475,-1.8477,-1.8461,-1.8354,-1.8319,-1.8308,-1.8156,-1.8272,-1.8264,-1.8259,-1.8255,-1.79,-1.7896,0,0,0,0,0,0,-1.8714,-1.8691,-1.8496,-1.8488,-1.8627,-1.8535,-1.8521,-1.8473,-1.8398,-1.839,-1.8458,-1.8463,-1.8333,-1.8318,-1.8303,-1.8148,-1.8263,-1.8254,-1.8249,-1.7904,-1.7899,-1.7894,0,0,0,0,0,0,-1.8719,-1.8696,-1.8501,-1.859,-1.8565,-1.8527,-1.8473,-1.8469,-1.8434,-1.8386,-1.8379,-1.8429,-1.8335,-1.8315,-1.8204,-1.8144,-1.825,-1.8242,-1.7909,-1.7902,-1.7897,-1.7837,0,0,0,0,0,0,-1.8727,-1.8698,-1.8649,-1.8588,-1.8561,-1.8405,-1.8469,-1.8463,-1.8419,-1.8424,-1.8357,-1.8349,-1.8336,-1.8217,-1.8195,-1.8134,-1.8235,-1.7914,-1.7906,-1.7899,-1.7844,-1.7829,-1.7817,0,0,0,0,0,-1.8736,-1.8635,-1.8646,-1.8623,-1.8499,-1.8401,-1.8385,-1.8374,-1.8414,-1.8364,-1.8334,-1.8351,-1.8154,-1.8206,-1.8181,-1.8116,-1.7918,-1.7908,-1.7899,-1.785,-1.7832,-1.7817,0,0,0,0,0,0,-1.8687,-1.8627,-1.8639,-1.8516,-1.8464,-1.8407,-1.8344,-1.8355,-1.829,-1.8297,-1.8285,-1.8269,-1.8156,-1.8125,-1.8183,-1.7988,-1.8041,-1.8027,-1.8012,-1.7995,-1.7982,-1.7992,-1.8228,0,0,0,0,0,-1.8663,-1.859,-1.8541,-1.8437,-1.8411,-1.8382,-1.8339,-1.8335,-1.828,-1.8258,-1.8219,-1.8163,-1.8089,-1.804,-1.7969,-1.784,-1.7826,-1.7783,-1.7769,-1.7758,-1.7746,-1.7677,-1.7657,-1.7864,-1.7864,-1.7864,0,0,-1.861,-1.8568,-1.8523,-1.8426,-1.8386,-1.831,-1.8363,-1.828,-1.8223,-1.8244,-1.8138,-1.8108,-1.8045,-1.7925,-1.787,-1.7895,-1.7686,-1.7747,-1.7738,-1.7731,-1.7665,-1.7646,-1.7628,-1.7858,-1.7859,-1.786,0,0,-1.8476,-1.8437,-1.8347,-1.8306,-1.8245,-1.8227,-1.8205,-1.8147,-1.8128,-1.8022,-1.8037,-1.7969,-1.7841,-1.7796,-1.7757,-1.7609,-1.7623,-1.7586,-1.7515,-1.7447,-1.7431,-1.7417,-1.7365,-1.7346,-1.7573,-1.7573,-1.7573,0,-1.8417,-1.8305,-1.8299,-1.8215,-1.8173,-1.8191,-1.81,-1.806,-1.7977,-1.7947,-1.7978,-1.782,-1.7778,-1.7649,-1.7613,-1.758,-1.7555,-1.7593,-1.7434,-1.742,-1.7406,-1.7357,-1.7337,-1.7569,-1.757,-1.757,-1.7571,0,-1.8237,-1.816,-1.8094,-1.8018,-1.7968,-1.788,-1.786,-1.781,-1.7811,-1.779,-1.7682,-1.7633,-1.7554,-1.7523,-1.7522,-1.7393,-1.7412,-1.7438,-1.7492,-1.7383,-1.7336,-1.7317,-1.7564,-1.7565,-1.7566,-1.7567,0,0,-1.8067,-1.799,-1.7966,-1.7933,-1.7868,-1.7807,-1.7721,-1.7646,-1.7603,-1.7546,-1.7474,-1.7367,-1.7392,-1.7348,-1.7342,-1.7283,-1.7171,-1.7317,-1.7315,-1.7292,-1.7027,-1.7008,-1.6986,-1.718,-1.7176,-1.7173,-1.7033,0,-1.7927,-1.7778,-1.7771,-1.7635,-1.7563,-1.7581,-1.7506,-1.7458,-1.7436,-1.7372,-1.7347,-1.7272,-1.731,-1.7283,-1.7226,-1.7197,-1.7117,-1.7206,-1.7112,-1.7109,-1.7128,-1.6962,-1.694,-1.681,-1.7015,-1.7012,-1.7009,0,-1.7744,-1.7685,-1.7543,-1.7491,-1.746,-1.7394,-1.7325,-1.7263,-1.7209,-1.7198,-1.7149,-1.7153,-1.7065,-1.7122,-1.7,-1.7061,-1.7022,-1.7002,-1.6997,-1.6988,-1.7052,-1.6948,-1.6768,-1.6749,-1.698,-1.6982,-1.6985,0,-1.7636,-1.752,-1.7421,-1.7391,-1.7327,-1.728,-1.7251,-1.7201,-1.7157,-1.7097,-1.7068,-1.6997,-1.6959,-1.6904,-1.6888,-1.6931,-1.6767,-1.6823,-1.6755,-1.6755,-1.6719,-1.6721,-1.6531,-1.6693,-1.6693,-1.6694,-1.6694,0,-1.7481,-1.7393,-1.7372,-1.731,-1.7213,-1.7205,-1.7108,-1.7082,-1.7038,-1.6972,-1.6982,-1.6919,-1.6902,-1.6836,-1.6823,-1.6725,-1.6707,-1.6695,-1.6693,-1.6694,-1.6696,-1.6669,-1.6677,-1.6689,-1.669,-1.6691,-1.6692,0,-1.7343,-1.7325,-1.7218,-1.7167,-1.7153,-1.7083,-1.7039,-1.698,-1.6961,-1.6877,-1.6857,-1.6825,-1.6749,-1.6728,-1.6635,-1.6627,-1.6512,-1.6517,-1.653,-1.6531,-1.6464,-1.6471,-1.6249,-1.622,-1.6401,-1.64,-1.6398,0,-1.7245,-1.7179,-1.7123,-1.708,-1.705,-1.698,-1.6937,-1.6927,-1.688,-1.6815,-1.6764,-1.6689,-1.6629,-1.6505,-1.6473,-1.6403,-1.6407,-1.6334,-1.6396,-1.6401,-1.6407,-1.6412,-1.6405,-1.6323,-1.6321,-1.6319,-1.6318,0,-1.7075,-1.707,-1.7007,-1.6942,-1.689,-1.6837,-1.6787,-1.6751,-1.6734,-1.6682,-1.6605,-1.6558,-1.6465,-1.639,-1.632,-1.6289,-1.63,-1.6299,-1.628,-1.628,-1.6291,-1.6286,-1.6499,-1.6304,-1.6305,-1.6306,-1.6307,-1.6307,-1.6954,-1.6897,-1.6849,-1.678,-1.6742,-1.6695,-1.6638,-1.6613,-1.6549,-1.6474,-1.6472,-1.6388,-1.6337,-1.6244,-1.621,-1.6144,-1.6166,-1.6137,-1.613,-1.6123,-1.6118,-1.6302,-1.6131,-1.6131,-1.6131,-1.6132,-1.6132,0,-1.6785,-1.6756,-1.6693,-1.6624,-1.6569,-1.6587,-1.6533,-1.6486,-1.6413,-1.6365,-1.6307,-1.6219,-1.6148,-1.6111,-1.604,-1.5995,-1.5998,-1.5976,-1.598,-1.5973,-1.6102,-1.6127,-1.5975,-1.5975,-1.5975,-1.5975,-1.5975,-1.5975,-1.6691,-1.6596,-1.6586,-1.6472,-1.6443,-1.6363,-1.6331,-1.6288,-1.625,-1.6153,-1.6094,-1.6072,-1.6029,-1.5956,-1.5891,-1.5883,-1.5856,-1.5832,-1.5825,-1.5947,-1.5963,-1.5978,-1.6001,-1.5826,-1.5826,-1.5701,-1.57,-1.5699]}]]